Location: Unspecified
(0.0000°N, 0.0000°E)
Time: 17:01:41
(UTC+00:00)

Vanguard 2 - Pass Details

Date: 22 December 2018
Orbit: 553 x 2939 km, 32.9° (Epoch: 18 June)

Event Time Altitude Azimuth Distance (km) Brightness Sun altitude
Rises 10:45:21 0° 221° (SW) 6,369 12.3 60.6°
Reaches altitude 10° 10:51:05 10° 210° (SSW) 5,004 12.0 61.4°
Maximum altitude 11:01:33 26° 160° (SSE) 3,033 11.6 62.8°
Drops below altitude 10° 11:08:48 10° 106° (ESE) 3,398 11.2 63.6°
Sets 11:11:47 0° 93° (E) 4,045 11.4 64.0°
